Time,TemperatureF,DewpointF,PressureIn,WindDirection,WindDirectionDegrees,WindSpeedMPH,WindSpeedGustMPH,Humidity,HourlyPrecipIn,Conditions,Clouds,dailyrainin,SoftwareType,DateUTC
2013-01-29 00:00:00,66.9,59.5,31.01,SE,145,0.0,0.0,77,0.00,,,0.00,VWS V14.01,2013-01-29 05:00:00,
2013-01-29 00:03:00,66.9,59.5,31.01,SE,145,0.0,0.0,77,0.00,,,0.00,VWS V14.01,2013-01-29 05:03:00,
2013-01-29 00:04:00,66.9,59.5,31.01,SE,145,0.0,0.0,77,0.00,,,0.00,VWS V14.01,2013-01-29 05:04:00,
2013-01-29 00:06:00,66.9,59.5,31.01,SE,145,0.0,0.0,77,0.00,,,0.00,VWS V14.01,2013-01-29 05:06:00,
2013-01-29 00:12:00,66.7,59.3,31.01,SE,145,0.0,0.0,77,0.00,,,0.00,VWS V14.01,2013-01-29 05:12:00,
2013-01-29 00:18:00,66.9,59.5,31.01,SE,145,0.0,0.0,77,0.00,,,0.00,VWS V14.01,2013-01-29 05:18:00,
2013-01-29 00:23:00,66.7,59.7,31.01,SE,145,0.0,0.0,78,0.00,,,0.00,VWS V14.01,2013-01-29 05:23:00,
2013-01-29 00:29:00,66.6,59.5,31.01,SE,145,0.0,0.0,78,0.00,,,0.00,VWS V14.01,2013-01-29 05:29:00,
2013-01-29 00:34:00,66.6,59.5,31.01,SE,145,0.0,0.0,78,0.00,,,0.00,VWS V14.01,2013-01-29 05:34:00,
2013-01-29 00:40:00,66.6,59.5,31.01,SE,145,0.0,0.0,78,0.00,,,0.00,VWS V14.01,2013-01-29 05:40:00,
2013-01-29 00:46:00,66.6,59.5,31.01,SE,145,0.0,0.0,78,0.00,,,0.00,VWS V14.01,2013-01-29 05:46:00,
2013-01-29 00:51:00,66.4,59.7,31.01,SE,146,0.0,0.0,79,0.00,,,0.00,VWS V14.01,2013-01-29 05:51:00,
2013-01-29 00:57:00,66.2,59.5,31.01,SE,145,0.0,0.0,79,0.00,,,0.00,VWS V14.01,2013-01-29 05:57:00,
2013-01-29 01:02:00,66.2,59.5,31.01,SE,145,0.0,0.0,79,0.00,,,0.00,VWS V14.01,2013-01-29 06:02:00,
2013-01-29 01:08:00,66.2,59.5,31.01,SE,145,0.0,0.0,79,0.00,,,0.00,VWS V14.01,2013-01-29 06:08:00,
2013-01-29 01:13:00,66.0,59.7,31.01,SE,145,0.0,0.0,80,0.00,,,0.00,VWS V14.01,2013-01-29 06:13:00,
2013-01-29 01:19:00,66.0,59.7,31.01,SE,145,0.0,0.0,80,0.00,,,0.00,VWS V14.01,2013-01-29 06:19:00,
2013-01-29 01:25:00,66.0,59.7,31.01,SE,145,0.0,0.0,80,0.00,,,0.00,VWS V14.01,2013-01-29 06:25:00,
2013-01-29 01:30:00,66.0,60.0,31.01,SE,145,0.0,0.0,81,0.00,,,0.00,VWS V14.01,2013-01-29 06:30:00,
2013-01-29 01:36:00,66.0,60.0,31.01,SE,145,0.0,0.0,81,0.00,,,0.00,VWS V14.01,2013-01-29 06:36:00,
2013-01-29 01:41:00,66.0,60.0,31.01,SE,145,0.0,0.0,81,0.00,,,0.00,VWS V14.01,2013-01-29 06:41:00,
2013-01-29 01:47:00,65.8,59.8,31.01,SE,145,0.0,0.0,81,0.00,,,0.00,VWS V14.01,2013-01-29 06:47:00,
2013-01-29 01:52:00,65.7,59.7,31.01,SE,145,0.0,0.0,81,0.00,,,0.00,VWS V14.01,2013-01-29 06:52:00,
2013-01-29 01:57:00,65.7,60.0,31.01,SE,145,0.0,0.0,82,0.00,,,0.00,VWS V14.01,2013-01-29 06:57:00,
2013-01-29 02:03:00,65.7,60.0,31.01,SE,145,0.0,0.0,82,0.00,,,0.00,VWS V14.01,2013-01-29 07:03:00,
2013-01-29 02:08:00,65.5,59.8,31.01,SE,145,0.0,0.0,82,0.00,,,0.00,VWS V14.01,2013-01-29 07:08:00,
2013-01-29 02:14:00,65.5,59.8,31.01,SE,145,0.0,0.0,82,0.00,,,0.00,VWS V14.01,2013-01-29 07:14:00,
2013-01-29 02:19:00,65.5,59.8,31.01,SE,145,0.0,0.0,82,0.00,,,0.00,VWS V14.01,2013-01-29 07:19:00,
2013-01-29 02:25:00,65.3,59.7,31.01,SE,145,0.0,0.0,82,0.00,,,0.00,VWS V14.01,2013-01-29 07:25:00,
2013-01-29 02:31:00,65.1,59.5,31.01,SE,145,0.0,0.0,82,0.00,,,0.00,VWS V14.01,2013-01-29 07:31:00,
2013-01-29 02:36:00,65.1,59.8,31.01,SE,145,0.0,0.0,83,0.00,,,0.00,VWS V14.01,2013-01-29 07:36:00,
2013-01-29 02:41:00,65.1,59.5,31.01,SE,145,0.0,0.0,82,0.00,,,0.00,VWS V14.01,2013-01-29 07:41:00,
2013-01-29 02:46:00,65.1,59.5,31.01,SE,145,0.0,0.0,82,0.00,,,0.00,VWS V14.01,2013-01-29 07:46:00,
2013-01-29 02:52:00,64.9,59.7,31.01,SE,145,0.0,0.0,83,0.00,,,0.00,VWS V14.01,2013-01-29 07:52:00,
2013-01-29 02:57:00,64.8,59.5,31.01,SE,145,0.0,0.0,83,0.00,,,0.00,VWS V14.01,2013-01-29 07:57:00,
2013-01-29 03:03:00,64.8,59.5,31.01,SE,145,0.0,0.0,83,0.00,,,0.00,VWS V14.01,2013-01-29 08:03:00,
2013-01-29 03:08:00,64.8,59.5,31.01,SE,145,0.0,0.0,83,0.00,,,0.00,VWS V14.01,2013-01-29 08:08:00,
2013-01-29 03:14:00,64.8,59.5,31.01,SE,145,0.0,0.0,83,0.00,,,0.00,VWS V14.01,2013-01-29 08:14:00,
2013-01-29 03:19:00,64.6,59.3,31.01,SE,145,0.0,0.0,83,0.00,,,0.00,VWS V14.01,2013-01-29 08:19:00,
2013-01-29 03:25:00,64.6,59.3,31.01,SE,145,0.0,0.0,83,0.00,,,0.00,VWS V14.01,2013-01-29 08:25:00,
2013-01-29 03:30:00,64.6,59.3,31.01,SE,145,0.0,0.0,83,0.00,,,0.00,VWS V14.01,2013-01-29 08:30:00,
2013-01-29 03:36:00,64.6,59.3,31.01,SE,145,0.0,0.0,83,0.00,,,0.00,VWS V14.01,2013-01-29 08:36:00,
2013-01-29 03:42:00,64.4,59.5,31.01,SE,145,0.0,0.0,84,0.00,,,0.00,VWS V14.01,2013-01-29 08:42:00,
2013-01-29 03:48:00,64.4,59.5,31.01,SE,145,0.0,0.0,84,0.00,,,0.00,VWS V14.01,2013-01-29 08:48:00,
2013-01-29 03:53:00,64.4,59.5,31.01,SE,145,0.0,0.0,84,0.00,,,0.00,VWS V14.01,2013-01-29 08:53:00,
2013-01-29 03:59:00,64.4,59.5,31.01,SE,145,0.0,0.0,84,0.00,,,0.00,VWS V14.01,2013-01-29 08:59:00,
2013-01-29 04:04:00,64.4,59.5,31.01,SE,145,0.0,0.0,84,0.00,,,0.00,VWS V14.01,2013-01-29 09:04:00,
2013-01-29 04:10:00,64.2,59.6,31.01,SE,145,0.0,0.0,85,0.00,,,0.00,VWS V14.01,2013-01-29 09:10:00,
2013-01-29 04:15:00,64.2,59.6,31.01,SE,145,0.0,0.0,85,0.00,,,0.00,VWS V14.01,2013-01-29 09:15:00,
2013-01-29 04:21:00,64.2,59.6,31.01,SE,145,0.0,0.0,85,0.00,,,0.00,VWS V14.01,2013-01-29 09:21:00,
2013-01-29 04:27:00,64.2,59.6,31.01,SE,145,0.0,0.0,85,0.00,,,0.00,VWS V14.01,2013-01-29 09:27:00,
2013-01-29 04:32:00,64.2,60.0,31.01,SE,145,0.0,0.0,86,0.00,,,0.00,VWS V14.01,2013-01-29 09:32:00,
2013-01-29 04:38:00,64.2,60.0,31.01,SE,145,0.0,0.0,86,0.00,,,0.00,VWS V14.01,2013-01-29 09:38:00,
2013-01-29 04:43:00,64.2,60.0,31.01,SE,145,0.0,0.0,86,0.00,,,0.00,VWS V14.01,2013-01-29 09:43:00,
2013-01-29 04:49:00,64.2,60.0,31.01,SE,145,0.0,0.0,86,0.00,,,0.00,VWS V14.01,2013-01-29 09:49:00,
2013-01-29 04:54:00,64.2,60.0,31.01,SE,145,0.0,0.0,86,0.00,,,0.00,VWS V14.01,2013-01-29 09:54:00,
2013-01-29 05:00:00,64.2,60.0,31.01,SE,145,0.0,0.0,86,0.00,,,0.00,VWS V14.01,2013-01-29 10:00:00,
2013-01-29 05:06:00,64.2,60.0,31.01,SE,145,0.0,0.0,86,0.00,,,0.00,VWS V14.01,2013-01-29 10:06:00,
2013-01-29 05:11:00,64.2,60.0,31.01,SE,145,0.0,0.0,86,0.00,,,0.00,VWS V14.01,2013-01-29 10:11:00,
2013-01-29 05:17:00,64.2,60.3,31.01,SE,145,0.0,0.0,87,0.00,,,0.00,VWS V14.01,2013-01-29 10:17:00,
2013-01-29 05:22:00,64.2,60.3,31.01,SE,145,0.0,0.0,87,0.00,,,0.00,VWS V14.01,2013-01-29 10:22:00,
2013-01-29 05:28:00,64.2,60.3,31.01,SE,145,0.0,0.0,87,0.00,,,0.00,VWS V14.01,2013-01-29 10:28:00,
2013-01-29 05:34:00,64.2,60.3,31.01,SE,145,0.0,0.0,87,0.00,,,0.00,VWS V14.01,2013-01-29 10:34:00,
2013-01-29 05:39:00,64.2,60.3,31.01,SE,145,0.0,0.0,87,0.00,,,0.00,VWS V14.01,2013-01-29 10:39:00,
2013-01-29 05:45:00,64.2,60.6,31.01,SE,145,0.0,0.0,88,0.00,,,0.00,VWS V14.01,2013-01-29 10:45:00,
2013-01-29 05:50:00,64.2,60.6,31.01,SE,145,0.0,0.0,88,0.00,,,0.00,VWS V14.01,2013-01-29 10:50:00,
2013-01-29 05:55:00,64.0,60.4,31.01,SE,145,0.0,0.0,88,0.00,,,0.00,VWS V14.01,2013-01-29 10:55:00,
2013-01-29 06:01:00,64.2,60.6,31.01,SE,145,0.0,0.0,88,0.00,,,0.00,VWS V14.01,2013-01-29 11:01:00,
2013-01-29 06:06:00,64.2,60.6,31.01,SE,141,0.0,0.0,88,0.00,,,0.00,VWS V14.01,2013-01-29 11:06:00,
2013-01-29 06:12:00,64.2,60.6,31.01,SE,141,0.0,0.0,88,0.00,,,0.00,VWS V14.01,2013-01-29 11:12:00,
2013-01-29 06:17:00,64.2,60.6,31.01,SE,141,0.0,0.0,88,0.00,,,0.00,VWS V14.01,2013-01-29 11:17:00,
2013-01-29 06:22:00,64.2,60.9,31.01,SE,141,0.0,0.0,89,0.00,,,0.00,VWS V14.01,2013-01-29 11:22:00,
2013-01-29 06:27:00,64.2,60.9,31.01,SE,141,0.0,0.0,89,0.00,,,0.00,VWS V14.01,2013-01-29 11:27:00,
2013-01-29 06:32:00,64.2,60.9,31.01,SE,141,0.0,0.0,89,0.00,,,0.00,VWS V14.01,2013-01-29 11:32:00,
2013-01-29 06:38:00,64.2,60.9,31.01,SE,141,0.0,0.0,89,0.00,,,0.00,VWS V14.01,2013-01-29 11:38:00,
2013-01-29 06:43:00,64.2,60.9,31.01,SE,141,0.0,0.0,89,0.00,,,0.00,VWS V14.01,2013-01-29 11:43:00,
2013-01-29 06:48:00,64.2,60.9,31.01,SE,141,0.0,0.0,89,0.00,,,0.00,VWS V14.01,2013-01-29 11:48:00,
2013-01-29 06:53:00,64.2,60.9,31.01,SE,141,0.0,0.0,89,0.00,,,0.00,VWS V14.01,2013-01-29 11:53:00,
2013-01-29 06:58:00,64.2,60.9,31.01,SE,141,0.0,0.0,89,0.00,,,0.00,VWS V14.01,2013-01-29 11:58:00,
2013-01-29 07:04:00,64.2,60.9,31.01,SE,141,0.0,0.0,89,0.00,,,0.00,VWS V14.01,2013-01-29 12:04:00,
2013-01-29 07:09:00,64.2,60.9,31.01,SE,141,0.0,0.0,89,0.00,,,0.00,VWS V14.01,2013-01-29 12:09:00,
2013-01-29 07:14:00,64.2,60.9,31.01,SE,141,0.0,0.0,89,0.00,,,0.00,VWS V14.01,2013-01-29 12:14:00,
2013-01-29 07:19:00,64.2,60.9,31.01,SE,141,0.0,0.0,89,0.00,,,0.00,VWS V14.01,2013-01-29 12:19:00,
2013-01-29 07:24:00,64.2,60.9,31.01,SE,141,0.0,0.0,89,0.00,,,0.00,VWS V14.01,2013-01-29 12:24:00,
2013-01-29 07:30:00,64.2,60.9,31.01,SE,141,0.0,0.0,89,0.00,,,0.00,VWS V14.01,2013-01-29 12:30:00,
2013-01-29 07:36:00,64.2,60.9,31.01,SE,141,0.0,0.0,89,0.00,,,0.00,VWS V14.01,2013-01-29 12:36:00,
2013-01-29 07:41:00,64.4,61.1,31.01,SE,141,0.0,0.0,89,0.00,,,0.00,VWS V14.01,2013-01-29 12:41:00,
2013-01-29 07:47:00,64.4,61.1,31.01,SE,141,0.0,0.0,89,0.00,,,0.00,VWS V14.01,2013-01-29 12:47:00,
2013-01-29 07:52:00,64.6,61.3,31.01,SE,141,0.0,0.0,89,0.00,,,0.00,VWS V14.01,2013-01-29 12:52:00,
2013-01-29 07:58:00,64.8,61.5,31.01,NNE,25,0.0,0.0,89,0.00,,,0.00,VWS V14.01,2013-01-29 12:58:00,
2013-01-29 08:03:00,64.8,61.5,31.01,NNE,25,0.0,0.0,89,0.00,,,0.00,VWS V14.01,2013-01-29 13:03:00,
2013-01-29 08:09:00,65.1,62.1,31.01,ENE,60,0.0,0.0,90,0.00,,,0.00,VWS V14.01,2013-01-29 13:09:00,
2013-01-29 08:15:00,65.1,62.1,31.01,East,79,0.0,0.0,90,0.00,,,0.00,VWS V14.01,2013-01-29 13:15:00,
2013-01-29 08:20:00,65.5,62.5,31.01,ESE,119,0.0,0.0,90,0.00,,,0.00,VWS V14.01,2013-01-29 13:20:00,
2013-01-29 08:26:00,65.7,62.7,31.01,East,92,0.0,0.0,90,0.00,,,0.00,VWS V14.01,2013-01-29 13:26:00,
2013-01-29 08:31:00,66.0,63.0,31.01,NE,51,0.0,0.0,90,0.00,,,0.00,VWS V14.01,2013-01-29 13:31:00,
2013-01-29 08:36:00,66.2,63.2,31.01,NE,55,0.0,0.0,90,0.00,,,0.00,VWS V14.01,2013-01-29 13:36:00,
2013-01-29 08:42:00,66.6,63.5,31.01,East,90,0.0,0.0,90,0.00,,,0.00,VWS V14.01,2013-01-29 13:42:00,
2013-01-29 08:47:00,66.9,64.2,31.01,ENE,62,0.0,0.0,91,0.00,,,0.00,VWS V14.01,2013-01-29 13:47:00,
2013-01-29 08:52:00,67.1,64.4,31.01,ENE,69,0.0,0.0,91,0.00,,,0.00,VWS V14.01,2013-01-29 13:52:00,
2013-01-29 08:57:00,67.5,64.8,31.01,SE,137,0.0,0.0,91,0.00,,,0.00,VWS V14.01,2013-01-29 13:57:00,
2013-01-29 09:03:00,67.8,65.1,31.01,ENE,74,0.0,0.0,91,0.00,,,0.00,VWS V14.01,2013-01-29 14:03:00,
2013-01-29 09:08:00,68.2,65.5,31.01,ESE,113,0.0,0.0,91,0.00,,,0.00,VWS V14.01,2013-01-29 14:08:00,
2013-01-29 09:14:00,68.5,65.5,31.01,ENE,67,2.2,4.9,90,0.00,,,0.00,VWS V14.01,2013-01-29 14:14:00,
2013-01-29 09:19:00,68.9,65.8,31.01,SSE,153,3.1,4.9,90,0.00,,,0.00,VWS V14.01,2013-01-29 14:19:00,
2013-01-29 09:25:00,69.6,66.6,31.01,SE,134,4.9,4.9,90,0.00,,,0.00,VWS V14.01,2013-01-29 14:25:00,
2013-01-29 09:31:00,70.0,66.6,31.01,ESE,117,3.1,6.3,89,0.00,,,0.00,VWS V14.01,2013-01-29 14:31:00,
2013-01-29 09:36:00,70.3,66.9,31.01,East,95,3.1,5.8,89,0.00,,,0.00,VWS V14.01,2013-01-29 14:36:00,
2013-01-29 09:42:00,71.1,67.3,31.01,East,94,2.2,3.6,88,0.00,,,0.00,VWS V14.01,2013-01-29 14:42:00,
2013-01-29 09:47:00,71.6,67.5,31.01,ESE,111,5.8,6.3,87,0.00,,,0.00,VWS V14.01,2013-01-29 14:47:00,
2013-01-29 09:52:00,72.1,68.1,31.01,South,185,3.6,3.6,87,0.00,,,0.00,VWS V14.01,2013-01-29 14:52:00,
2013-01-29 09:57:00,72.9,68.4,31.01,SSE,152,2.7,3.6,86,0.00,,,0.00,VWS V14.01,2013-01-29 14:57:00,
2013-01-29 10:02:00,73.4,68.6,31.01,South,179,4.9,10.5,85,0.00,,,0.00,VWS V14.01,2013-01-29 15:02:00,
2013-01-29 10:07:00,73.8,68.3,31.01,SE,129,3.6,7.2,83,0.00,,,0.00,VWS V14.01,2013-01-29 15:07:00,
2013-01-29 10:13:00,74.3,68.4,31.01,South,176,3.6,7.2,82,0.00,,,0.00,VWS V14.01,2013-01-29 15:13:00,
2013-01-29 10:18:00,74.8,68.6,31.01,East,98,5.8,5.8,81,0.00,,,0.00,VWS V14.01,2013-01-29 15:18:00,
2013-01-29 10:23:00,75.2,68.6,31.01,ESE,123,2.7,3.6,80,0.00,,,0.00,VWS V14.01,2013-01-29 15:23:00,
2013-01-29 10:29:00,75.6,68.6,31.01,ESE,112,3.6,8.3,79,0.00,,,0.00,VWS V14.01,2013-01-29 15:29:00,
2013-01-29 10:34:00,75.9,68.6,31.01,South,181,3.1,5.8,78,0.00,,,0.00,VWS V14.01,2013-01-29 15:34:00,
2013-01-29 10:39:00,76.3,68.6,31.01,SW,214,0.0,5.4,77,0.00,,,0.00,VWS V14.01,2013-01-29 15:39:00,
2013-01-29 10:45:00,77.0,68.9,31.01,East,98,4.0,6.3,76,0.00,,,0.00,VWS V14.01,2013-01-29 15:45:00,
2013-01-29 10:50:00,77.2,68.3,31.01,SE,124,5.8,7.2,74,0.00,,,0.00,VWS V14.01,2013-01-29 15:50:00,
2013-01-29 10:55:00,77.5,68.6,31.01,SW,215,5.8,7.6,74,0.00,,,0.00,VWS V14.01,2013-01-29 15:55:00,
2013-01-29 11:00:00,77.7,68.4,31.01,South,175,4.0,5.8,73,0.00,,,0.00,VWS V14.01,2013-01-29 16:00:00,
2013-01-29 11:06:00,77.4,67.6,31.01,ESE,106,8.7,8.7,72,0.00,,,0.00,VWS V14.01,2013-01-29 16:06:00,
2013-01-29 11:11:00,78.1,67.9,31.01,SSE,155,6.3,8.1,71,0.00,,,0.00,VWS V14.01,2013-01-29 16:11:00,
2013-01-29 11:17:00,78.8,67.8,31.01,SSE,165,6.3,7.2,69,0.00,,,0.00,VWS V14.01,2013-01-29 16:17:00,
2013-01-29 11:23:00,79.3,67.9,31.01,ESE,105,3.1,4.9,68,0.00,,,0.00,VWS V14.01,2013-01-29 16:23:00,
2013-01-29 11:28:00,79.7,68.2,31.01,SE,127,3.1,5.4,68,0.00,,,0.00,VWS V14.01,2013-01-29 16:28:00,
2013-01-29 11:33:00,79.5,67.6,31.01,SSE,162,0.0,5.8,67,0.00,,,0.00,VWS V14.01,2013-01-29 16:33:00,
2013-01-29 11:38:00,80.1,68.1,31.01,South,186,8.1,8.1,67,0.00,,,0.00,VWS V14.01,2013-01-29 16:38:00,
2013-01-29 11:43:00,79.7,67.3,31.01,SE,146,3.6,5.8,66,0.00,,,0.00,VWS V14.01,2013-01-29 16:43:00,
2013-01-29 11:49:00,79.3,67.0,31.01,SE,126,4.0,5.4,66,0.00,,,0.00,VWS V14.01,2013-01-29 16:49:00,
2013-01-29 11:55:00,79.9,67.1,31.01,East,97,4.0,5.4,65,0.00,,,0.00,VWS V14.01,2013-01-29 16:55:00,
2013-01-29 12:00:00,79.9,66.6,31.01,ESE,105,6.3,6.3,64,0.00,,,0.00,VWS V14.01,2013-01-29 17:00:00,
2013-01-29 12:06:00,79.7,66.5,31.01,East,96,6.3,6.3,64,0.00,,,0.00,VWS V14.01,2013-01-29 17:06:00,
2013-01-29 12:11:00,79.7,66.0,31.01,ESE,122,5.4,8.1,63,0.00,,,0.00,VWS V14.01,2013-01-29 17:11:00,
2013-01-29 12:17:00,80.4,66.7,31.01,SSE,150,7.2,8.1,63,0.00,,,0.00,VWS V14.01,2013-01-29 17:17:00,
2013-01-29 12:23:00,80.6,66.4,31.01,SE,125,3.6,5.8,62,0.00,,,0.00,VWS V14.01,2013-01-29 17:23:00,
2013-01-29 12:28:00,80.6,65.9,31.01,WSW,239,6.3,8.7,61,0.00,,,0.00,VWS V14.01,2013-01-29 17:28:00,
2013-01-29 12:33:00,80.6,65.9,31.01,SSW,197,3.1,3.6,61,0.00,,,0.00,VWS V14.01,2013-01-29 17:33:00,
2013-01-29 12:38:00,81.3,66.1,31.01,SE,135,5.4,5.4,60,0.00,,,0.00,VWS V14.01,2013-01-29 17:38:00,
2013-01-29 12:43:00,81.7,66.0,31.01,SSW,205,3.1,7.6,59,0.00,,,0.00,VWS V14.01,2013-01-29 17:43:00,
2013-01-29 12:48:00,81.3,65.6,31.01,SSE,156,3.6,6.3,59,0.00,,,0.00,VWS V14.01,2013-01-29 17:48:00,
2013-01-29 12:54:00,81.5,65.8,31.01,SW,214,3.1,5.4,59,0.00,,,0.00,VWS V14.01,2013-01-29 17:54:00,
2013-01-29 12:59:00,81.9,65.7,31.01,SSE,147,6.3,8.3,58,0.00,,,0.00,VWS V14.01,2013-01-29 17:59:00,
2013-01-29 13:05:00,82.4,65.7,31.01,ESE,115,4.0,5.8,57,0.00,,,0.00,VWS V14.01,2013-01-29 18:05:00,
2013-01-29 13:10:00,82.6,64.8,31.01,ESE,102,5.4,7.6,55,0.00,,,0.00,VWS V14.01,2013-01-29 18:10:00,
2013-01-29 13:15:00,82.4,64.6,31.01,SE,128,5.4,8.1,55,0.00,,,0.00,VWS V14.01,2013-01-29 18:15:00,
2013-01-29 13:20:00,82.4,64.1,31.01,SE,137,4.9,7.6,54,0.00,,,0.00,VWS V14.01,2013-01-29 18:20:00,
2013-01-29 13:25:00,83.1,64.2,31.01,South,173,5.4,5.4,53,0.00,,,0.00,VWS V14.01,2013-01-29 18:25:00,
2013-01-29 13:30:00,82.4,63.6,31.01,ESE,118,4.0,5.4,53,0.00,,,0.00,VWS V14.01,2013-01-29 18:30:00,
2013-01-29 13:35:00,82.0,63.8,31.01,ESE,105,3.1,5.8,54,0.00,,,0.00,VWS V14.01,2013-01-29 18:35:00,
2013-01-29 13:41:00,82.9,64.6,31.01,SE,146,4.9,7.6,54,0.00,,,0.00,VWS V14.01,2013-01-29 18:41:00,
2013-01-29 13:46:00,82.9,64.1,31.01,East,98,5.4,6.3,53,0.00,,,0.00,VWS V14.01,2013-01-29 18:46:00,
2013-01-29 13:51:00,83.5,64.6,31.01,SSE,157,0.0,5.4,53,0.00,,,0.00,VWS V14.01,2013-01-29 18:51:00,
2013-01-29 13:57:00,82.9,63.5,31.01,South,188,4.0,8.7,52,0.00,,,0.00,VWS V14.01,2013-01-29 18:57:00,
2013-01-29 14:02:00,82.4,63.6,31.01,SSE,159,4.0,5.4,53,0.00,,,0.00,VWS V14.01,2013-01-29 19:02:00,
2013-01-29 14:08:00,81.9,63.1,31.01,East,99,2.7,8.7,53,0.00,,,0.00,VWS V14.01,2013-01-29 19:08:00,
2013-01-29 14:13:00,82.0,63.2,31.01,ESE,122,5.4,5.8,53,0.00,,,0.00,VWS V14.01,2013-01-29 19:13:00,
2013-01-29 14:19:00,82.6,63.2,31.01,South,176,2.7,7.2,52,0.00,,,0.00,VWS V14.01,2013-01-29 19:19:00,
2013-01-29 14:24:00,82.2,63.4,31.01,SSE,153,3.1,3.1,53,0.00,,,0.00,VWS V14.01,2013-01-29 19:24:00,
2013-01-29 14:30:00,82.2,63.4,31.01,SW,235,5.4,5.4,53,0.00,,,0.00,VWS V14.01,2013-01-29 19:30:00,
2013-01-29 14:36:00,81.5,64.8,31.01,WNW,294,4.0,4.0,57,0.00,,,0.00,VWS V14.01,2013-01-29 19:36:00,
2013-01-29 14:41:00,80.8,65.6,31.01,West,269,5.8,5.8,60,0.00,,,0.00,VWS V14.01,2013-01-29 19:41:00,
2013-01-29 14:46:00,80.6,65.9,31.01,South,183,3.1,5.4,61,0.00,,,0.00,VWS V14.01,2013-01-29 19:46:00,
2013-01-29 14:51:00,80.8,66.6,31.01,SSW,201,6.3,6.3,62,0.00,,,0.00,VWS V14.01,2013-01-29 19:51:00,
2013-01-29 14:56:00,81.3,67.1,31.01,SSE,164,4.0,8.3,62,0.00,,,0.00,VWS V14.01,2013-01-29 19:56:00,
2013-01-29 15:01:00,81.9,67.1,31.01,SW,227,3.6,3.6,61,0.00,,,0.00,VWS V14.01,2013-01-29 20:01:00,
2013-01-29 15:07:00,82.0,67.3,31.01,WSW,250,4.0,5.4,61,0.00,,,0.00,VWS V14.01,2013-01-29 20:07:00,
2013-01-29 15:12:00,82.0,67.3,31.01,WNW,295,5.8,5.8,61,0.00,,,0.00,VWS V14.01,2013-01-29 20:12:00,
2013-01-29 15:18:00,81.3,66.6,31.01,West,268,5.4,6.3,61,0.00,,,0.00,VWS V14.01,2013-01-29 20:18:00,
2013-01-29 15:23:00,81.1,66.9,31.01,WSW,248,7.6,7.6,62,0.00,,,0.00,VWS V14.01,2013-01-29 20:23:00,
2013-01-29 15:28:00,81.1,66.9,31.01,SW,230,5.8,5.8,62,0.00,,,0.00,VWS V14.01,2013-01-29 20:28:00,
2013-01-29 15:33:00,81.1,66.9,31.01,West,281,4.0,4.0,62,0.00,,,0.00,VWS V14.01,2013-01-29 20:33:00,
2013-01-29 15:38:00,81.3,67.1,31.01,NW,308,5.8,5.8,62,0.00,,,0.00,VWS V14.01,2013-01-29 20:38:00,
2013-01-29 15:44:00,81.1,66.9,31.01,SW,224,5.8,8.3,62,0.00,,,0.00,VWS V14.01,2013-01-29 20:44:00,
2013-01-29 15:49:00,80.8,66.6,31.01,SW,233,3.6,4.0,62,0.00,,,0.00,VWS V14.01,2013-01-29 20:49:00,
2013-01-29 15:54:00,80.6,66.4,31.01,East,100,2.2,7.6,62,0.00,,,0.00,VWS V14.01,2013-01-29 20:54:00,
2013-01-29 15:59:00,80.4,66.7,31.01,WNW,301,4.9,7.6,63,0.00,,,0.00,VWS V14.01,2013-01-29 20:59:00,
2013-01-29 16:04:00,80.6,66.8,31.01,NNW,334,0.0,5.8,63,0.00,,,0.00,VWS V14.01,2013-01-29 21:04:00,
2013-01-29 16:10:00,80.2,66.5,31.01,SW,225,5.4,5.4,63,0.00,,,0.00,VWS V14.01,2013-01-29 21:10:00,
2013-01-29 16:15:00,80.2,67.0,31.01,WNW,283,6.3,8.7,64,0.00,,,0.00,VWS V14.01,2013-01-29 21:15:00,
2013-01-29 16:20:00,80.1,66.8,31.01,WSW,244,3.1,12.3,64,0.00,,,0.00,VWS V14.01,2013-01-29 21:20:00,
2013-01-29 16:25:00,80.1,67.2,31.01,WNW,286,3.1,4.0,65,0.00,,,0.00,VWS V14.01,2013-01-29 21:25:00,
2013-01-29 16:30:00,79.9,67.1,31.01,SSE,160,4.0,5.8,65,0.00,,,0.00,VWS V14.01,2013-01-29 21:30:00,
2013-01-29 16:36:00,79.7,66.9,31.01,WSW,237,8.7,8.7,65,0.00,,,0.00,VWS V14.01,2013-01-29 21:36:00,
2013-01-29 16:42:00,79.7,66.9,31.01,WSW,246,5.4,8.3,65,0.00,,,0.00,VWS V14.01,2013-01-29 21:42:00,
2013-01-29 16:47:00,79.7,66.9,31.01,West,259,6.3,8.7,65,0.00,,,0.00,VWS V14.01,2013-01-29 21:47:00,
2013-01-29 16:53:00,79.9,67.1,31.01,WSW,243,5.4,6.3,65,0.00,,,0.00,VWS V14.01,2013-01-29 21:53:00,
2013-01-29 16:58:00,79.7,66.9,31.01,WSW,251,4.9,5.4,65,0.00,,,0.00,VWS V14.01,2013-01-29 21:58:00,
2013-01-29 17:04:00,79.5,66.7,31.01,WSW,244,5.8,5.8,65,0.00,,,0.00,VWS V14.01,2013-01-29 22:04:00,
2013-01-29 17:10:00,79.2,66.8,31.01,South,180,5.4,8.3,66,0.00,,,0.00,VWS V14.01,2013-01-29 22:10:00,
2013-01-29 17:15:00,79.0,66.7,31.01,SW,226,2.7,4.9,66,0.00,,,0.00,VWS V14.01,2013-01-29 22:15:00,
2013-01-29 17:21:00,78.6,66.3,31.01,SSE,167,3.1,3.6,66,0.00,,,0.00,VWS V14.01,2013-01-29 22:21:00,
2013-01-29 17:26:00,78.4,66.6,31.01,WSW,251,5.4,7.6,67,0.00,,,0.00,VWS V14.01,2013-01-29 22:26:00,
2013-01-29 17:32:00,77.9,66.5,31.01,WSW,237,5.4,8.1,68,0.00,,,0.00,VWS V14.01,2013-01-29 22:32:00,
2013-01-29 17:38:00,77.4,66.0,31.01,SSW,196,2.7,3.6,68,0.00,,,0.00,VWS V14.01,2013-01-29 22:38:00,
2013-01-29 17:43:00,77.2,66.2,31.01,WSW,249,0.0,0.0,69,0.00,,,0.00,VWS V14.01,2013-01-29 22:43:00,
2013-01-29 17:49:00,77.0,66.5,31.01,WSW,253,2.7,4.9,70,0.00,,,0.00,VWS V14.01,2013-01-29 22:49:00,
2013-01-29 17:54:00,76.6,66.1,31.01,WSW,240,4.0,4.0,70,0.00,,,0.00,VWS V14.01,2013-01-29 22:54:00,
2013-01-29 18:00:00,76.5,66.4,31.01,SW,220,0.0,4.0,71,0.00,,,0.00,VWS V14.01,2013-01-29 23:00:00,
2013-01-29 18:05:00,76.1,66.4,31.01,West,265,4.9,4.9,72,0.00,,,0.00,VWS V14.01,2013-01-29 23:05:00,
2013-01-29 18:10:00,75.9,66.7,31.01,SSW,194,0.0,4.0,73,0.00,,,0.00,VWS V14.01,2013-01-29 23:10:00,
2013-01-29 18:16:00,75.7,66.5,31.01,SW,224,0.0,0.0,73,0.00,,,0.00,VWS V14.01,2013-01-29 23:16:00,
2013-01-29 18:21:00,75.4,66.5,31.01,WSW,245,2.7,3.6,74,0.00,,,0.00,VWS V14.01,2013-01-29 23:21:00,
2013-01-29 18:27:00,75.2,66.3,31.01,SW,224,0.0,5.4,74,0.00,,,0.00,VWS V14.01,2013-01-29 23:27:00,
2013-01-29 18:32:00,75.0,66.9,31.01,West,263,7.2,7.2,76,0.00,,,0.00,VWS V14.01,2013-01-29 23:32:00,
2013-01-29 18:37:00,74.8,66.8,31.01,WSW,237,0.0,4.0,76,0.00,,,0.00,VWS V14.01,2013-01-29 23:37:00,
2013-01-29 18:42:00,74.7,67.0,31.01,SSW,209,2.7,4.9,77,0.00,,,0.00,VWS V14.01,2013-01-29 23:42:00,
2013-01-29 18:48:00,74.7,67.0,31.01,SSW,202,0.0,2.2,77,0.00,,,0.00,VWS V14.01,2013-01-29 23:48:00,
2013-01-29 18:53:00,74.5,67.2,31.01,WSW,240,0.0,0.0,78,0.00,,,0.00,VWS V14.01,2013-01-29 23:53:00,
2013-01-29 18:59:00,74.5,67.2,31.01,SE,127,0.0,4.0,78,0.00,,,0.00,VWS V14.01,2013-01-29 23:59:00,
2013-01-29 19:05:00,74.5,67.2,31.01,South,173,0.0,4.0,78,0.00,,,0.00,VWS V14.01,2013-01-30 00:05:00,
2013-01-29 19:10:00,74.5,67.2,31.01,WNW,291,0.0,0.0,78,0.00,,,0.00,VWS V14.01,2013-01-30 00:10:00,
2013-01-29 19:16:00,74.3,67.4,31.01,SSE,165,3.1,4.0,79,0.00,,,0.00,VWS V14.01,2013-01-30 00:16:00,
2013-01-29 19:21:00,74.1,67.2,31.01,SSW,192,0.0,0.0,79,0.00,,,0.00,VWS V14.01,2013-01-30 00:21:00,
2013-01-29 19:27:00,73.9,67.4,31.01,WSW,243,0.0,0.0,80,0.00,,,0.00,VWS V14.01,2013-01-30 00:27:00,
2013-01-29 19:33:00,73.8,67.2,31.01,SSE,162,0.0,0.0,80,0.00,,,0.00,VWS V14.01,2013-01-30 00:33:00,
2013-01-29 19:38:00,73.8,67.2,31.01,SW,228,0.0,0.0,80,0.00,,,0.00,VWS V14.01,2013-01-30 00:38:00,
2013-01-29 19:44:00,73.6,67.0,31.01,SW,228,0.0,0.0,80,0.00,,,0.00,VWS V14.01,2013-01-30 00:44:00,
2013-01-29 19:49:00,73.6,67.0,31.01,WSW,241,0.0,0.0,80,0.00,,,0.00,VWS V14.01,2013-01-30 00:49:00,
2013-01-29 19:54:00,73.4,67.2,31.01,South,185,0.0,0.0,81,0.00,,,0.00,VWS V14.01,2013-01-30 00:54:00,
2013-01-29 19:59:00,73.4,66.9,31.01,South,185,0.0,0.0,80,0.00,,,0.00,VWS V14.01,2013-01-30 00:59:00,
2013-01-29 20:04:00,73.4,67.2,31.01,SSE,167,0.0,0.0,81,0.00,,,0.00,VWS V14.01,2013-01-30 01:04:00,
2013-01-29 20:09:00,73.4,67.2,31.01,SSE,167,0.0,0.0,81,0.00,,,0.00,VWS V14.01,2013-01-30 01:09:00,
2013-01-29 20:14:00,73.2,67.1,31.01,SSE,147,0.0,0.0,81,0.00,,,0.00,VWS V14.01,2013-01-30 01:14:00,
2013-01-29 20:20:00,73.0,66.9,31.01,SSE,147,0.0,0.0,81,0.00,,,0.00,VWS V14.01,2013-01-30 01:20:00,
2013-01-29 20:25:00,72.9,67.1,31.01,SSE,147,0.0,0.0,82,0.00,,,0.00,VWS V14.01,2013-01-30 01:25:00,
2013-01-29 20:30:00,72.7,66.9,31.01,SSE,147,0.0,0.0,82,0.00,,,0.00,VWS V14.01,2013-01-30 01:30:00,
2013-01-29 20:36:00,72.5,66.7,31.01,SSE,147,0.0,0.0,82,0.00,,,0.00,VWS V14.01,2013-01-30 01:36:00,
2013-01-29 20:41:00,72.3,66.5,31.01,SSE,147,0.0,0.0,82,0.00,,,0.00,VWS V14.01,2013-01-30 01:41:00,
2013-01-29 20:47:00,72.1,66.3,31.01,SSE,147,0.0,0.0,82,0.00,,,0.00,VWS V14.01,2013-01-30 01:47:00,
2013-01-29 20:52:00,72.0,66.2,31.01,SSE,147,0.0,0.0,82,0.00,,,0.00,VWS V14.01,2013-01-30 01:52:00,
2013-01-29 20:58:00,71.8,66.3,31.01,SSE,147,0.0,0.0,83,0.00,,,0.00,VWS V14.01,2013-01-30 01:58:00,
2013-01-29 21:03:00,71.8,66.3,31.01,SSE,147,0.0,0.0,83,0.00,,,0.00,VWS V14.01,2013-01-30 02:03:00,
2013-01-29 21:09:00,71.6,66.2,31.01,SSE,147,0.0,0.0,83,0.00,,,0.00,VWS V14.01,2013-01-30 02:09:00,
2013-01-29 21:15:00,71.6,66.2,31.01,SSE,147,0.0,0.0,83,0.00,,,0.00,VWS V14.01,2013-01-30 02:15:00,
2013-01-29 21:20:00,71.4,66.3,31.01,SSE,147,0.0,0.0,84,0.00,,,0.00,VWS V14.01,2013-01-30 02:20:00,
2013-01-29 21:26:00,71.2,66.2,31.01,SSE,147,0.0,0.0,84,0.00,,,0.00,VWS V14.01,2013-01-30 02:26:00,
2013-01-29 21:31:00,71.1,66.0,31.01,SSE,147,0.0,0.0,84,0.00,,,0.00,VWS V14.01,2013-01-30 02:31:00,
2013-01-29 21:37:00,71.1,66.0,31.01,SSE,147,0.0,0.0,84,0.00,,,0.00,VWS V14.01,2013-01-30 02:37:00,
2013-01-29 21:43:00,70.9,65.8,31.01,ESE,104,3.1,3.1,84,0.00,,,0.00,VWS V14.01,2013-01-30 02:43:00,
2013-01-29 21:48:00,70.9,65.8,31.01,SE,140,0.0,0.0,84,0.00,,,0.00,VWS V14.01,2013-01-30 02:48:00,
2013-01-29 21:54:00,70.9,65.8,31.01,ESE,102,0.0,0.0,84,0.00,,,0.00,VWS V14.01,2013-01-30 02:54:00,
2013-01-29 22:00:00,70.7,65.6,31.01,ESE,115,0.0,0.0,84,0.00,,,0.00,VWS V14.01,2013-01-30 03:00:00,
2013-01-29 22:05:00,70.7,65.6,31.01,SE,125,0.0,0.0,84,0.00,,,0.00,VWS V14.01,2013-01-30 03:05:00,
2013-01-29 22:11:00,70.7,65.6,31.01,ESE,114,0.0,0.0,84,0.00,,,0.00,VWS V14.01,2013-01-30 03:11:00,
2013-01-29 22:16:00,70.7,65.6,31.01,ESE,122,0.0,2.7,84,0.00,,,0.00,VWS V14.01,2013-01-30 03:16:00,
2013-01-29 22:22:00,70.5,65.5,31.01,ESE,120,0.0,0.0,84,0.00,,,0.00,VWS V14.01,2013-01-30 03:22:00,
2013-01-29 22:28:00,70.5,65.5,31.01,SSE,150,0.0,3.1,84,0.00,,,0.00,VWS V14.01,2013-01-30 03:28:00,
2013-01-29 22:33:00,70.5,65.5,31.01,SE,130,4.0,4.0,84,0.00,,,0.00,VWS V14.01,2013-01-30 03:33:00,
2013-01-29 22:38:00,70.5,65.5,31.01,ESE,120,0.0,3.1,84,0.00,,,0.00,VWS V14.01,2013-01-30 03:38:00,
2013-01-29 22:43:00,70.3,65.3,31.01,ESE,102,0.0,0.0,84,0.00,,,0.00,VWS V14.01,2013-01-30 03:43:00,
2013-01-29 22:49:00,70.3,65.3,31.01,ESE,116,0.0,0.0,84,0.00,,,0.00,VWS V14.01,2013-01-30 03:49:00,
2013-01-29 22:54:00,70.3,65.3,31.01,SSE,168,4.0,4.9,84,0.00,,,0.00,VWS V14.01,2013-01-30 03:54:00,
2013-01-29 23:00:00,70.2,65.1,31.01,SE,142,0.0,3.1,84,0.00,,,0.00,VWS V14.01,2013-01-30 04:00:00,
2013-01-29 23:05:00,70.2,65.1,31.01,SSE,164,0.0,0.0,84,0.00,,,0.00,VWS V14.01,2013-01-30 04:05:00,
2013-01-29 23:10:00,70.0,64.9,31.01,ESE,109,0.0,0.0,84,0.00,,,0.00,VWS V14.01,2013-01-30 04:10:00,
2013-01-29 23:15:00,70.0,64.9,31.01,East,79,0.0,0.0,84,0.00,,,0.00,VWS V14.01,2013-01-30 04:15:00,
2013-01-29 23:20:00,70.0,64.9,31.01,SSE,167,0.0,4.0,84,0.00,,,0.00,VWS V14.01,2013-01-30 04:20:00,
2013-01-29 23:25:00,69.8,64.8,31.01,ESE,120,0.0,0.0,84,0.00,,,0.00,VWS V14.01,2013-01-30 04:25:00,
2013-01-29 23:31:00,69.8,64.8,31.01,ESE,112,0.0,3.1,84,0.00,,,0.00,VWS V14.01,2013-01-30 04:31:00,
2013-01-29 23:36:00,69.8,64.8,31.01,ESE,114,0.0,3.6,84,0.00,,,0.00,VWS V14.01,2013-01-30 04:36:00,
2013-01-29 23:41:00,69.6,64.9,31.01,East,80,0.0,4.0,85,0.00,,,0.00,VWS V14.01,2013-01-30 04:41:00,
2013-01-29 23:46:00,69.6,64.9,31.01,ESE,123,0.0,0.0,85,0.00,,,0.00,VWS V14.01,2013-01-30 04:46:00,
2013-01-29 23:52:00,69.4,64.7,31.01,ESE,113,0.0,0.0,85,0.00,,,0.00,VWS V14.01,2013-01-30 04:52:00,
2013-01-29 23:57:00,69.4,64.7,31.01,SE,124,0.0,0.0,85,0.00,,,0.00,VWS V14.01,2013-01-30 04:57:00,